Weather History for Meridian NAS, MS

Change the Weather History Date:

Sunday, January 5, 2014

  Actual Average Record
Temperature  
Mean Temperature 46 °F -  
Max Temperature 63 °F 55 °F 72 °F (2005)
Min Temperature 28 °F 37 °F 10 °F (1999)
Degree Days  
Heating Degree Days 20    
Moisture  
Dew Point 39 °F    
Average Humidity 82    
Maximum Humidity 93    
Minimum Humidity 60    
Precipitation  
Precipitation 0.08 in - - ()
Sea Level Pressure  
Sea Level Pressure 30.01 in    
Wind  
Wind Speed 9 mph (South)    
Max Wind Speed 31 mph    
Max Gust Speed 40 mph    
Visibility 9 miles    
Events Rain    
Averages and records for this station are not official NWS values.
T = Trace of Precipitation, MM = Missing Value Source: NWS Daily Summary

Daily Weather History Graph

Daily Weather History Graph

Search for Another Location

Airport:

Trip Planner

Search our weather history database for the weather conditions in past years. The results will help you decide how hot, cold, wet, or windy it might be!

Date:

Astronomy

Jan. 05, 2014 Rise Set
Actual Time 6:56 AM CST 5:02 PM CST
Civil Twilight 6:29 AM CST 5:29 PM CST
Nautical Twilight 5:59 AM CST 6:00 PM CST
Astronomical Twilight 5:29 AM CST 6:30 PM CST
Moon 9:55 AM CST (1/5) 10:11 PM CST (1/5)
Length of Visible Light 11h 00m
Length of Day
10h 06m
Waxing Crescent, 25% of the Moon is Illuminated
Jan 5
Waxing Crescent
Jan 7
First Quarter
Jan 15
Full
Jan 23
Last Quarter
Jan 30
New

Hourly Weather History & Observations

Time (CST) Temp. Windchill Dew Point Humidity Pressure Visibility Wind Dir Wind Speed Gust Speed Precip Events Conditions
12:49 AM 37.9 °F 35.5 °F 34.0 °F 86% 30.09 in 10.0 mi East 3.5 mph - N/A   Overcast
12:56 AM 37.9 °F 35.5 °F 34.0 °F 86% 30.13 in 10.0 mi East 3.5 mph - N/A   Overcast
1:40 AM 37.9 °F 34.4 °F 35.1 °F 89% 30.09 in 10.0 mi ESE 4.6 mph - N/A   Overcast
1:47 AM 37.9 °F 34.4 °F 35.1 °F 89% 30.09 in 10.0 mi East 4.6 mph - N/A   Overcast
1:56 AM 37.9 °F 33.5 °F 35.1 °F 89% 30.13 in 10.0 mi East 5.8 mph - N/A   Overcast
2:52 AM 39.2 °F 35.0 °F 35.6 °F 87% 30.06 in 10.0 mi East 5.8 mph - N/A   Overcast
2:56 AM 39.0 °F 35.7 °F 35.1 °F 86% 30.11 in 10.0 mi East 4.6 mph - N/A   Overcast
3:34 AM 39.0 °F 34.0 °F 35.1 °F 86% 30.06 in 10.0 mi East 6.9 mph - N/A   Overcast
3:56 AM 39.0 °F 35.7 °F 35.1 °F 86% 30.09 in 10.0 mi ENE 4.6 mph - N/A   Overcast
4:42 AM 39.0 °F 36.8 °F 35.1 °F 86% 30.04 in 10.0 mi East 3.5 mph - N/A   Overcast
4:56 AM 39.0 °F 36.8 °F 35.1 °F 86% 30.08 in 10.0 mi East 3.5 mph - N/A   Overcast
5:56 AM 39.0 °F 34.8 °F 36.0 °F 89% 30.08 in 9.0 mi ESE 5.8 mph - 0.00 in   Overcast
6:32 AM 39.0 °F 36.8 °F 36.0 °F 89% 30.03 in 10.0 mi East 3.5 mph - N/A   Overcast
6:56 AM 39.0 °F 36.8 °F 36.0 °F 89% 30.07 in 10.0 mi ESE 3.5 mph - N/A   Overcast
7:56 AM 41.0 °F 37.1 °F 37.0 °F 86% 30.05 in 10.0 mi ESE 5.8 mph - N/A   Overcast
8:23 AM 42.1 °F 39.2 °F 37.0 °F 82% 30.02 in 10.0 mi SSE 4.6 mph - N/A   Overcast
8:56 AM 44.1 °F 41.5 °F 37.9 °F 79% 30.05 in 10.0 mi SSE 4.6 mph - N/A   Overcast
9:48 AM 46.0 °F 44.8 °F 39.0 °F 76% 30.01 in 10.0 mi SE 3.5 mph - N/A   Overcast
9:56 AM 46.0 °F 43.1 °F 39.9 °F 79% 30.05 in 10.0 mi SSE 5.8 mph - N/A   Overcast
10:08 AM 46.0 °F 44.8 °F 39.9 °F 79% 30.01 in 10.0 mi SSE 3.5 mph - N/A   Overcast
10:56 AM 48.0 °F - 42.1 °F 80% 30.01 in 10.0 mi SSE 5.8 mph - N/A   Overcast
11:19 AM 48.9 °F - 43.0 °F 80% 29.95 in 10.0 mi SE 6.9 mph - N/A   Overcast
11:51 AM 51.8 °F - 44.6 °F 76% 29.93 in 10.0 mi Variable 6.9 mph - N/A   Overcast
11:56 AM 51.1 °F - 44.1 °F 77% 29.96 in 10.0 mi SSE 5.8 mph - N/A   Overcast
12:03 PM 51.1 °F - 44.1 °F 77% 29.91 in 10.0 mi SSE 6.9 mph - N/A   Mostly Cloudy
12:56 PM 57.0 °F - 46.9 °F 69% 29.89 in 10.0 mi SSE 9.2 mph - N/A   Mostly Cloudy
1:56 PM 63.0 °F - 48.9 °F 60% 29.86 in 10.0 mi SSW 12.7 mph 23.0 mph N/A   Mostly Cloudy
2:56 PM 63.0 °F - 50.0 °F 63% 29.84 in 10.0 mi South 8.1 mph - N/A   Overcast
3:56 PM 63.0 °F - 51.1 °F 65% 29.83 in 10.0 mi South 8.1 mph - N/A   Overcast
4:56 PM 63.0 °F - 52.0 °F 67% 29.82 in 10.0 mi SSW 9.2 mph - N/A   Overcast
5:45 PM 59.0 °F - 55.0 °F 87% 29.85 in 3.0 mi WNW 25.3 mph 39.1 mph 0.02 in Rain Rain
5:52 PM 53.1 °F - 48.9 °F 86% 29.90 in 2.0 mi WNW 28.8 mph 39.1 mph 0.03 in Rain Rain
5:56 PM 52.0 °F - 48.0 °F 86% 29.86 in 3.0 mi WNW 26.5 mph 39.1 mph 0.01 in Rain Light Rain
6:21 PM 50.0 °F - 48.0 °F 93% 29.89 in 3.0 mi WNW 16.1 mph 25.3 mph 0.02 in Rain Light Rain
6:34 PM 50.0 °F - 46.9 °F 89% 29.90 in 4.0 mi WNW 18.4 mph 26.5 mph 0.03 in Rain Light Rain
6:52 PM 48.2 °F - 44.6 °F 87% 29.92 in 4.0 mi WNW 21.9 mph 31.1 mph 0.04 in Rain Light Rain
6:56 PM 46.9 °F - 44.1 °F 90% 29.96 in 4.0 mi WNW 23.0 mph - 0.04 in Rain Light Rain
7:11 PM 46.0 °F 39.0 °F 43.0 °F 89% 29.94 in 10.0 mi WNW 17.3 mph 27.6 mph 0.00 in   Overcast
7:17 PM 46.0 °F 38.8 °F 43.0 °F 89% 29.94 in 10.0 mi NW 18.4 mph 24.2 mph 0.00 in Rain Light Rain
7:31 PM 44.1 °F 35.7 °F 41.0 °F 89% 29.96 in 7.0 mi NW 20.7 mph 27.6 mph 0.00 in Rain Light Rain
7:43 PM 42.1 °F 31.9 °F 39.0 °F 89% 29.98 in 9.0 mi WNW 26.5 mph 35.7 mph 0.01 in Rain Light Rain
7:51 PM 42.8 °F 33.1 °F 37.4 °F 81% 29.98 in 10.0 mi WNW 25.3 mph 35.7 mph 0.01 in Rain Light Rain
7:56 PM 42.1 °F 32.3 °F 37.9 °F 85% 30.03 in 10.0 mi WNW 24.2 mph 33.4 mph 0.01 in   Overcast
8:24 PM 39.9 °F 28.2 °F 35.1 °F 83% 30.01 in 10.0 mi WNW 31.1 mph 40.3 mph N/A   Overcast
8:34 PM 37.9 °F 26.6 °F 34.0 °F 86% 30.02 in 10.0 mi NW 25.3 mph 35.7 mph N/A   Overcast
8:46 PM 37.9 °F 27.3 °F 33.1 °F 83% 30.03 in 10.0 mi NW 21.9 mph 28.8 mph N/A   Overcast
8:56 PM 37.0 °F 26.4 °F 32.0 °F 82% 30.09 in 10.0 mi NW 20.7 mph 33.4 mph N/A   Overcast
9:18 PM 36.0 °F 24.4 °F 32.0 °F 86% 30.06 in 10.0 mi WNW 23.0 mph 31.1 mph N/A   Overcast
9:33 PM 34.0 °F 21.3 °F 30.9 °F 89% 30.08 in 10.0 mi NW 25.3 mph 33.4 mph N/A   Overcast
9:56 PM 33.1 °F 21.5 °F 28.0 °F 82% 30.14 in 10.0 mi NW 19.6 mph 28.8 mph N/A   Overcast
10:56 PM 30.0 °F 17.2 °F 23.0 °F 75% 30.19 in 10.0 mi NNW 20.7 mph 31.1 mph N/A   Overcast
11:53 PM 28.4 °F 15.1 °F 21.2 °F 74% 30.17 in 10.0 mi NW 20.7 mph 28.8 mph N/A   Overcast
11:56 PM 30.0 °F 17.2 °F 21.0 °F 69% 30.21 in 10.0 mi NW 20.7 mph 27.6 mph N/A   Overcast